DW8266 Weather Reports


Display with metric or nautical units.
time (UTC)temp
F
wind
direction
speed
MPH
gust
MPH
rain 1hr
in
rain 24hr
in
rain mn
in
humidity
%
barometer
mb
20201031221855 77 355 2.0 4.0 0.00 0.00 0.00 51 1017.8
20201031221344 77 355 2.0 5.0 0.00 0.00 0.00 51 1017.9
20201031220843 77 355 2.0 5.0 0.00 0.00 0.00 48 1017.9
20201031220343 77 355 2.0 4.0 0.00 0.00 0.00 47 1017.9
20201031215859 77 355 2.0 4.0 0.00 0.00 0.00 49 1017.9
20201031215340 78 351 2.0 4.0 0.00 0.00 0.00 47 1018.0
20201031214836 78 350 2.0 4.0 0.00 0.00 0.00 48 1018.1
20201031214333 78 350 2.0 4.0 0.00 0.00 0.00 48 1018.1
20201031213836 78 350 2.0 4.0 0.00 0.00 0.00 48 1018.1
20201031213347 77 350 2.0 6.0 0.00 0.00 0.00 49 1018.1
20201031212831 77 350 3.0 6.0 0.00 0.00 0.00 46 1018.1
20201031212337 77 355 2.0 6.0 0.00 0.00 0.00 51 1018.1
20201031211837 77 25 1.0 4.0 0.00 0.00 0.00 53 1018.1
20201031211333 77 25 2.0 6.0 0.00 0.00 0.00 48 1018.1
20201031210831 76 24 3.0 6.0 0.00 0.00 0.00 48 1018.2
20201031210337 77 21 2.0 4.0 0.00 0.00 0.00 49 1018.3
20201031205822 77 21 2.0 6.0 0.00 0.00 0.00 47 1018.3
20201031205314 77 21 2.0 6.0 0.00 0.00 0.00 48 1018.4
20201031204813 77 24 2.0 4.0 0.00 0.00 0.00 48 1018.4
20201031204322 77 24 1.0 4.0 0.00 0.00 0.00 50 1018.4
20201031203818 77 24 1.0 4.0 0.00 0.00 0.00 53 1018.5
20201031203313 76 24 2.0 4.0 0.00 0.00 0.00 48 1018.6
20201031202811 77 24 1.0 4.0 0.00 0.00 0.00 48 1018.7
20201031202312 77 25 1.0 4.0 0.00 0.00 0.00 52 1018.8
20201031201813 77 25 1.0 4.0 0.00 0.00 0.00 53 1018.8
20201031201314 77 25 1.0 3.0 0.00 0.00 0.00 49 1018.8
20201031200821 77 24 1.0 3.0 0.00 0.00 0.00 51 1018.9
20201031200311 76 24 1.0 3.0 0.00 0.00 0.00 50 1018.9
20201031195811 77 24 1.0 4.0 0.00 0.00 0.00 48 1019.0
20201031195310 76 24 2.0 4.0 0.00 0.00 0.00 50 1019.1
20201031194809 76 24 2.0 4.0 0.00 0.00 0.00 49 1019.2
20201031194309 76 24 1.0 4.0 0.00 0.00 0.00 49 1019.2
20201031193811 75 24 2.0 8.0 0.00 0.00 0.00 52 1019.3
20201031193312 75 24 2.0 8.0 0.00 0.00 0.00 52 1019.4
20201031192808 75 56 1.0 3.0 0.00 0.00 0.00 51 1019.5
20201031192307 74 56 2.0 7.0 0.00 0.00 0.00 52 1019.5
20201031191813 75 55 2.0 7.0 0.00 0.00 0.00 52 1019.5
20201031191307 75 64 1.0 4.0 0.00 0.00 0.00 54 1019.6
20201031190801 74 65 2.0 4.0 0.00 0.00 0.00 52 1019.7
20201031190249 75 65 2.0 4.0 0.00 0.00 0.00 53 1019.8
20201031185747 75 13 1.0 3.0 0.00 0.00 0.00 55 1019.9
20201031185251 75 13 2.0 5.0 0.00 0.00 0.00 52 1020.0
20201031184746 74 13 2.0 5.0 0.00 0.00 0.00 58 1020.1
20201031184256 74 13 2.0 6.0 0.00 0.00 0.00 58 1020.2
20201031183745 74 30 2.0 6.0 0.00 0.00 0.00 60 1020.3
20201031183251 73 37 2.0 6.0 0.00 0.00 0.00 59 1020.5
20201031182745 73 37 3.0 6.0 0.00 0.00 0.00 56 1020.6
20201031182244 73 24 3.0 7.0 0.00 0.00 0.00 59 1020.7
20201031181748 74 30 2.0 7.0 0.00 0.00 0.00 57 1020.8
20201031181256 73 355 1.0 6.0 0.00 0.00 0.00 57 1020.9
20201031180747 73 20 1.0 3.0 0.00 0.00 0.00 58 1020.9
20201031180242 72 20 1.0 4.0 0.00 0.00 0.00 57 1021.1
20201031175743 72 20 2.0 5.0 0.00 0.00 0.00 55 1021.2
20201031175245 72 20 2.0 5.0 0.00 0.00 0.00 59 1021.3
20201031174746 72 30 2.0 7.0 0.00 0.00 0.00 57 1021.3
20201031174247 71 30 3.0 7.0 0.00 0.00 0.00 63 1021.5
20201031173741 71 30 4.0 8.0 0.00 0.00 0.00 58 1021.6
20201031173239 71 30 3.0 8.0 0.00 0.00 0.00 61 1021.7
20201031172742 71 15 2.0 4.0 0.00 0.00 0.00 61 1021.7
20201031172242 71 15 3.0 6.0 0.00 0.00 0.00 61 1021.8
20201031171738 71 15 3.0 6.0 0.00 0.00 0.00 61 1021.8
20201031171236 71 339 3.0 6.0 0.00 0.00 0.00 63 1021.9
20201031170743 70 9 3.0 6.0 0.00 0.00 0.00 61 1022.0
20201031170237 70 36 2.0 6.0 0.00 0.00 0.00 63 1022.0
20201031165738 69 37 2.0 6.0 0.00 0.00 0.00 66 1022.1
20201031165239 69 37 3.0 6.0 0.00 0.00 0.00 68 1022.2
20201031164738 68 38 3.0 6.0 0.00 0.00 0.00 70 1022.2
20201031164227 68 36 2.0 6.0 0.00 0.00 0.00 67 1022.3
20201031163727 68 323 2.0 4.0 0.00 0.00 0.00 72 1022.4
20201031163230 68 322 2.0 5.0 0.00 0.00 0.00 72 1022.4
20201031162740 67 327 2.0 5.0 0.00 0.00 0.00 72 1022.4
20201031162228 67 329 1.0 4.0 0.00 0.00 0.00 72 1022.6
20201031161722 66 314 2.0 4.0 0.00 0.00 0.00 75 1022.5
20201031161211 66 313 1.0 4.0 0.00 0.00 0.00 75 1022.5
20201031160709 65 312 2.0 5.0 0.00 0.00 0.00 74 1022.6
20201031160220 65 313 2.0 5.0 0.00 0.00 0.00 75 1022.6
20201031155710 65 294 1.0 5.0 0.00 0.00 0.00 78 1022.6
20201031155213 64 267 1.0 3.0 0.00 0.00 0.00 77 1022.6
20201031154713 64 267 1.0 3.0 0.00 0.00 0.00 78 1022.5
20201031154159 63 267 1.0 4.0 0.00 0.00 0.00 79 1022.6
20201031153651 63 267 1.0 4.0 0.00 0.00 0.00 80 1022.6
20201031153150 62 265 0.0 3.0 0.00 0.00 0.00 83 1022.6
20201031152648 62 265 0.0 3.0 0.00 0.00 0.00 84 1022.7
20201031152148 61 265 0.0 3.0 0.00 0.00 0.00 81 1022.7
20201031151646 60 265 1.0 3.0 0.00 0.00 0.00 84 1022.7
20201031151148 60 265 0.0 3.0 0.00 0.00 0.00 84 1022.6
20201031150634 60 265 0.0 2.0 0.00 0.00 0.00 84 1022.7
20201031150133 59 265 0.0 2.0 0.00 0.00 0.00 85 1022.7
20201031145632 59 265 0.0 3.0 0.00 0.00 0.00 85 1022.6
20201031145131 58 265 0.0 3.0 0.00 0.00 0.00 86 1022.6
20201031144631 57 229 0.0 2.0 0.00 0.00 0.00 86 1022.6
20201031144131 57 229 1.0 2.0 0.00 0.00 0.00 87 1022.5
20201031143620 56 229 1.0 2.0 0.00 0.00 0.00 87 1022.5
20201031143112 55 229 1.0 2.0 0.00 0.00 0.00 88 1022.4
20201031142613 55 229 1.0 2.0 0.00 0.00 0.00 89 1022.4
20201031142112 54 229 1.0 2.0 0.00 0.00 0.00 90 1022.3
20201031141612 53 229 1.0 2.0 0.00 0.00 0.00 91 1022.3
20201031141106 53 229 1.0 3.0 0.00 0.00 0.00 92 1022.3
20201031140612 52 229 1.0 3.0 0.00 0.00 0.00 93 1022.3
20201031140100 52 229 1.0 2.0 0.00 0.00 0.00 94 1022.3
20201031135600 51 229 0.0 2.0 0.00 0.00 0.00 94 1022.1
20201031135100 51 229 0.0 2.0 0.00 0.00 0.00 94 1022.1
20201031134601 50 229 0.0 2.0 0.00 0.00 0.00 95 1022.0
20201031134101 50 229 0.0 2.0 0.00 0.00 0.00 95 1022.0
20201031133600 49 229 0.0 2.0 0.00 0.00 0.00 95 1022.0
20201031133116 49 229 0.0 1.0 0.00 0.00 0.00 95 1021.9
20201031132620 48 229 0.0 1.0 0.00 0.00 0.00 95 1021.9
20201031132105 48 229 0.0 1.0 0.00 0.00 0.00 95 1021.9
20201031131600 48 229 0.0 1.0 0.00 0.00 0.00 95 1021.9
20201031131124 47 229 0.0 1.0 0.00 0.00 0.00 95 1021.9
20201031130557 0 229 0.0 0.0 0.00 0.00 0.00 1021.8
20201031130031 0 0.0 0.0 0.00 0.00 0.00 1021.8
20201031125525 47 229 0.0 0.0 0.00 0.00 0.00 94 1021.8
20201031125024 47 229 0.0 0.0 0.00 0.00 0.00 94 1021.8
20201031124442 47 229 0.0 0.0 0.00 0.00 0.00 94 1021.8
20201031123939 47 229 0.0 0.0 0.00 0.00 0.00 94 1021.7
20201031123425 47 229 0.0 0.0 0.00 0.00 0.00 94 1021.7
20201031122925 47 229 0.0 0.0 0.00 0.00 0.00 94 1021.6
20201031122423 47 229 0.0 0.0 0.00 0.00 0.00 94 1021.7
20201031121919 47 229 0.0 0.0 0.00 0.00 0.00 94 1021.6
20201031121422 47 229 0.0 0.0 0.00 0.00 0.00 94 1021.6
20201031120920 47 229 0.0 0.0 0.00 0.00 0.00 94 1021.6
20201031120412 47 229 0.0 0.0 0.00 0.00 0.00 94 1021.5
20201031115904 47 229 0.0 0.0 0.00 0.00 0.00 94 1021.6
20201031115401 47 229 0.0 0.0 0.00 0.00 0.00 93 1021.6
20201031114900 47 229 0.0 0.0 0.00 0.00 0.00 93 1021.6
20201031114407 47 229 0.0 0.0 0.00 0.00 0.00 93 1021.7
20201031113906 47 229 0.0 0.0 0.00 0.00 0.00 93 1021.7
20201031113402 47 229 0.0 0.0 0.00 0.00 0.00 93 1021.6
20201031112857 47 229 0.0 0.0 0.00 0.00 0.00 93 1021.5
20201031112344 47 229 0.0 0.0 0.00 0.00 0.00 93 1021.5
20201031111843 48 229 0.0 0.0 0.00 0.00 0.00 93 1021.6
20201031111335 48 229 0.0 0.0 0.00 0.00 0.00 93 1021.6
20201031110833 48 229 0.0 0.0 0.00 0.00 0.00 93 1021.5
20201031110330 48 229 0.0 0.0 0.00 0.00 0.00 93 1021.5
20201031105829 48 229 0.0 0.0 0.00 0.00 0.00 93 1021.4
20201031105327 48 229 0.0 0.0 0.00 0.00 0.00 93 1021.4
20201031104829 48 229 0.0 0.0 0.00 0.00 0.00 93 1021.4
20201031104325 48 229 0.0 0.0 0.00 0.00 0.00 92 1021.4
20201031103822 48 229 0.0 0.0 0.00 0.00 0.00 92 1021.3
20201031103317 48 229 0.0 0.0 0.00 0.00 0.00 92 1021.3
20201031102815 48 229 0.0 0.0 0.00 0.00 0.00 92 1021.3
20201031102311 48 229 0.0 0.0 0.00 0.00 0.00 92 1021.3
20201031101811 48 229 0.0 0.0 0.00 0.00 0.00 92 1021.3
20201031101313 48 229 0.0 0.0 0.00 0.00 0.00 92 1021.3
20201031100812 49 229 0.0 0.0 0.00 0.00 0.00 91 1021.3
20201031100305 49 229 0.0 0.0 0.00 0.00 0.00 91 1021.2
20201031095803 0 0.0 0.0 0.00 0.00 0.00 1021.3
20201031095259 49 0.0 0.0 0.00 0.00 0.00 90 1021.2
20201031094801 49 229 0.0 0.0 0.00 0.00 0.00 90 1021.2
20201031094233 49 229 0.0 0.0 0.00 0.00 0.00 90 1021.2
20201031093704 49 229 0.0 0.0 0.00 0.00 0.00 90 1021.2
20201031093120 49 229 0.0 0.0 0.00 0.00 0.00 90 1021.2
20201031092628 49 229 0.0 0.0 0.00 0.00 0.00 90 1021.2
20201031092117 49 229 0.0 0.0 0.00 0.00 0.00 90 1021.2
20201031091614 50 229 0.0 0.0 0.00 0.00 0.00 90 1021.2
20201031091122 50 229 0.0 0.0 0.00 0.00 0.00 90 1021.3
20201031090614 50 229 0.0 0.0 0.00 0.00 0.00 90 1021.4
20201031090103 50 229 0.0 0.0 0.00 0.00 0.00 89 1021.3
20201031085603 50 229 0.0 0.0 0.00 0.00 0.00 89 1021.3
20201031085110 50 229 0.0 0.0 0.00 0.00 0.00 89 1021.3
20201031084601 50 229 0.0 0.0 0.00 0.00 0.00 89 1021.3
20201031084103 50 229 0.0 0.0 0.00 0.00 0.00 89 1021.4
20201031083603 51 229 0.0 0.0 0.00 0.00 0.00 89 1021.4
20201031083058 51 229 0.0 0.0 0.00 0.00 0.00 89 1021.4
20201031082555 51 229 0.0 0.0 0.00 0.00 0.00 89 1021.4
20201031082058 51 229 0.0 0.0 0.00 0.00 0.00 89 1021.4
20201031081551 51 229 0.0 0.0 0.00 0.00 0.00 89 1021.4
20201031081049 51 229 0.0 0.0 0.00 0.00 0.00 88 1021.4
20201031080549 51 229 0.0 0.0 0.00 0.00 0.00 88 1021.5
20201031080044 51 229 0.0 0.0 0.00 0.00 0.00 88 1021.5
20201031075536 51 229 0.0 0.0 0.00 0.00 0.00 88 1021.5
20201031075035 51 229 0.0 0.0 0.00 0.00 0.00 88 1021.6
20201031074543 51 229 0.0 0.0 0.00 0.00 0.00 88 1021.6
20201031074034 51 229 0.0 0.0 0.00 0.00 0.00 88 1021.6
20201031073540 51 229 0.0 0.0 0.00 0.00 0.00 87 1021.6
20201031073037 51 229 0.0 0.0 0.00 0.00 0.00 87 1021.6
20201031072524 52 229 0.0 0.0 0.00 0.00 0.00 87 1021.6
20201031072022 52 229 0.0 0.0 0.00 0.00 0.00 87 1021.6
20201031071521 52 229 0.0 0.0 0.00 0.00 0.00 88 1021.5
20201031071020 52 229 0.0 0.0 0.00 0.00 0.00 87 1021.5
20201031070525 52 229 0.0 0.0 0.00 0.00 0.00 86 1021.6
20201031070023 52 229 0.0 0.0 0.00 0.00 0.00 86 1021.6
20201031065533 52 229 0.0 0.0 0.00 0.00 0.00 87 1021.5
20201031065024 52 229 0.0 0.0 0.00 0.00 0.00 87 1021.5
20201031064524 52 229 0.0 0.0 0.00 0.00 0.00 87 1021.4
20201031064006 52 229 0.0 0.0 0.00 0.00 0.00 87 1021.4
20201031063509 52 229 0.0 0.0 0.00 0.00 0.00 86 1021.5
20201031063020 52 229 0.0 0.0 0.00 0.00 0.00 86 1021.6
20201031062510 52 229 0.0 0.0 0.00 0.00 0.00 86 1021.6
20201031062007 52 229 0.0 0.0 0.00 0.00 0.00 85 1021.6
20201031061501 52 229 0.0 0.0 0.00 0.00 0.00 85 1021.5
20201031061001 52 229 0.0 0.0 0.00 0.00 0.00 85 1021.5
20201031060500 53 229 0.0 0.0 0.00 0.00 0.00 85 1021.6
20201031060000 53 229 0.0 0.0 0.00 0.00 0.00 84 1021.6
20201031055500 53 229 0.0 0.0 0.00 0.00 0.00 84 1021.6
20201031055012 53 229 0.0 0.0 0.00 0.00 0.00 84 1021.7
20201031054456 53 229 0.0 0.0 0.00 0.00 0.00 84 1021.7
20201031053949 53 229 0.0 0.0 0.00 0.00 0.00 84 1021.7
20201031053454 53 229 0.0 0.0 0.00 0.00 0.00 84 1021.7
20201031052952 53 229 0.0 0.0 0.00 0.00 0.00 84 1021.7
20201031052455 53 229 0.0 0.0 0.00 0.00 0.00 84 1021.7
20201031051957 53 229 0.0 0.0 0.00 0.00 0.00 84 1021.7
20201031051440 53 229 0.0 0.0 0.00 0.00 0.00 84 1021.7
20201031050939 53 229 0.0 0.0 0.00 0.00 0.00 84 1021.8
20201031050448 53 229 0.0 0.0 0.00 0.00 0.00 85 1021.7
20201031045936 54 229 0.0 0.0 0.00 0.00 0.00 86 1021.7
20201031045437 54 229 0.0 0.0 0.00 0.00 0.00 88 1021.7
20201031044956 54 229 0.0 0.0 0.00 0.00 0.00 88 1021.7
20201031044428 54 229 0.0 0.0 0.00 0.00 0.00 88 1021.8
20201031043926 54 229 0.0 0.0 0.00 0.00 0.00 88 1021.8
20201031043429 54 229 0.0 0.0 0.00 0.00 0.00 87 1021.8
20201031042925 54 229 0.0 0.0 0.00 0.00 0.00 87 1021.8
20201031042425 54 229 0.0 0.0 0.00 0.00 0.00 86 1021.8
20201031041922 54 229 0.0 0.0 0.00 0.00 0.00 85 1021.8
20201031041427 54 229 0.0 0.0 0.00 0.00 0.00 84 1021.7
20201031040920 55 229 0.0 0.0 0.00 0.00 0.00 84 1021.8
20201031040418 55 229 0.0 0.0 0.00 0.00 0.00 84 1021.7
20201031035917 55 229 0.0 0.0 0.00 0.00 0.00 83 1021.7
20201031035419 55 229 0.0 0.0 0.00 0.00 0.00 82 1021.7
20201031034925 55 229 0.0 0.0 0.00 0.00 0.00 82 1021.7
20201031034411 55 229 0.0 0.0 0.00 0.00 0.00 81 1021.7
20201031033924 55 229 0.0 0.0 0.00 0.00 0.00 81 1021.6
20201031033409 55 229 0.0 0.0 0.00 0.00 0.00 81 1021.6
20201031032906 55 229 0.0 0.0 0.00 0.00 0.00 79 1021.5
20201031032408 55 229 0.0 0.0 0.00 0.00 0.00 76 1021.5
20201031031900 55 229 0.0 0.0 0.00 0.00 0.00 74 1021.5
20201031031357 56 229 0.0 0.0 0.00 0.00 0.00 74 1021.4
20201031030858 56 229 0.0 0.0 0.00 0.00 0.00 74 1021.4
20201031030354 56 229 0.0 0.0 0.00 0.00 0.00 74 1021.4
20201031025859 56 229 0.0 0.0 0.00 0.00 0.00 74 1021.5
20201031025348 56 229 0.0 0.0 0.00 0.00 0.00 74 1021.4
20201031024848 56 229 0.0 0.0 0.00 0.00 0.00 74 1021.4
20201031024347 57 229 0.0 0.0 0.00 0.00 0.00 74 1021.4
20201031023840 57 229 0.0 0.0 0.00 0.00 0.00 75 1021.3
20201031023340 57 229 0.0 0.0 0.00 0.00 0.00 76 1021.3
20201031022839 57 229 0.0 0.0 0.00 0.00 0.00 76 1021.3
20201031022346 58 229 0.0 0.0 0.00 0.00 0.00 76 1021.3
20201031021834 58 229 0.0 0.0 0.00 0.00 0.00 74 1021.3
20201031021333 58 229 0.0 0.0 0.00 0.00 0.00 69 1021.2
20201031020833 58 229 0.0 0.0 0.00 0.00 0.00 67 1021.2
20201031020334 58 229 0.0 0.0 0.00 0.00 0.00 67 1021.2
20201031015831 58 229 0.0 0.0 0.00 0.00 0.00 67 1021.1
20201031015330 58 229 0.0 0.0 0.00 0.00 0.00 66 1021.2
20201031014831 59 229 0.0 0.0 0.00 0.00 0.00 65 1021.1
20201031014326 59 229 0.0 0.0 0.00 0.00 0.00 64 1021.1
20201031013817 59 229 0.0 0.0 0.00 0.00 0.00 62 1021.1
20201031013319 59 229 0.0 0.0 0.00 0.00 0.00 63 1021.1
20201031012807 60 229 0.0 0.0 0.00 0.00 0.00 63 1021.0
20201031012322 60 229 0.0 0.0 0.00 0.00 0.00 60 1020.9
20201031011809 60 229 0.0 0.0 0.00 0.00 0.00 59 1020.9
20201031011303 60 229 0.0 0.0 0.00 0.00 0.00 59 1020.8
20201031010805 61 229 0.0 0.0 0.00 0.00 0.00 58 1020.8
20201031010305 61 229 0.0 0.0 0.00 0.00 0.00 58 1020.8
20201031005807 61 229 0.0 0.0 0.00 0.00 0.00 57 1020.8
20201031005305 61 229 0.0 0.0 0.00 0.00 0.00 58 1020.7
20201031004805 62 229 0.0 0.0 0.00 0.00 0.00 57 1020.7
20201031004301 62 229 0.0 0.0 0.00 0.00 0.00 57 1020.7
20201031003825 62 229 0.0 0.0 0.00 0.00 0.00 56 1020.7
20201031003258 62 229 0.0 0.0 0.00 0.00 0.00 57 1020.7
20201031002800 63 229 0.0 0.0 0.00 0.00 0.00 56 1020.6
20201031002300 63 229 0.0 0.0 0.00 0.00 0.00 56 1020.6
20201031001805 64 229 0.0 0.0 0.00 0.00 0.00 55 1020.6
20201031001256 64 229 0.0 0.0 0.00 0.00 0.00 54 1020.6
20201031000751 65 229 0.0 0.0 0.00 0.00 0.00 53 1020.6
20201031000253 65 229 0.0 0.0 0.00 0.00 0.00 52 1020.6
20201030235805 66 229 0.0 0.0 0.00 0.00 0.00 50 1020.6
20201030235248 67 229 0.0 0.0 0.00 0.00 0.00 50 1020.6
20201030234749 67 229 0.0 0.0 0.00 0.00 0.00 48 1020.6
20201030234247 68 229 0.0 0.0 0.00 0.00 0.00 47 1020.6
20201030233751 69 229 0.0 1.0 0.00 0.00 0.00 48 1020.6
20201030233243 69 229 0.0 1.0 0.00 0.00 0.00 46 1020.5
20201030232747 70 229 0.0 1.0 0.00 0.00 0.00 45 1020.5
20201030232241 70 229 1.0 2.0 0.00 0.00 0.00 44 1020.5
20201030231741 70 229 1.0 2.0 0.00 0.00 0.00 42 1020.5
20201030231245 71 229 1.0 4.0 0.00 0.00 0.00 41 1020.5
20201030230744 71 229 1.0 4.0 0.00 0.00 0.00 40 1020.5
20201030230243 71 229 1.0 2.0 0.00 0.00 0.00 42 1020.6
20201030225731 71 229 1.0 2.0 0.00 0.00 0.00 41 1020.6
20201030225216 71 229 1.0 3.0 0.00 0.00 0.00 42 1020.5
20201030224713 71 229 1.0 3.0 0.00 0.00 0.00 40 1020.6
20201030224206 71 229 1.0 2.0 0.00 0.00 0.00 42 1020.6
20201030223707 71 229 1.0 3.0 0.00 0.00 0.00 42 1020.6
20201030223205 71 229 1.0 3.0 0.00 0.00 0.00 41 1020.6
20201030222708 71 229 1.0 4.0 0.00 0.00 0.00 42 1020.5
20201030222200 71 229 2.0 8.0 0.00 0.00 0.00 42 1020.7